| time (UTC) | temp C | wind direction | speed KPH | gust KPH | rain 1hr cm | rain 24hr cm | rain mn cm | humidity % | barometer mb |
| 20260505200018 | 20 | 258 | 27.4 | 43.5 | 0.00 | 0.00 | 0.00 | 57 | 1012.3 |
| 20260505194956 | 20 | 265 | 24.1 | 41.8 | 0.00 | 0.00 | 0.00 | 57 | 1012.5 |
| 20260505193929 | 20 | 240 | 25.7 | 48.3 | 0.00 | 0.00 | 0.00 | 57 | 1012.5 |
| 20260505192903 | 19 | 239 | 25.7 | 48.3 | 0.00 | 0.00 | 0.00 | 59 | 1012.6 |
| 20260505191852 | 19 | 257 | 24.1 | 48.3 | 0.00 | 0.00 | 0.00 | 58 | 1012.7 |
| 20260505185703 | 18 | 299 | 25.7 | 41.8 | 0.00 | 0.00 | 0.00 | 60 | 1012.7 |
| 20260505184711 | 18 | 259 | 24.1 | 43.5 | 0.00 | 0.00 | 0.00 | 61 | 1012.8 |
| 20260505182618 | 18 | 284 | 25.7 | 45.1 | 0.00 | 0.00 | 0.00 | 61 | 1013.0 |
| 20260505181548 | 18 | 254 | 29.0 | 48.3 | 0.00 | 0.00 | 0.00 | 62 | 1013.0 |
| 20260505180602 | 17 | 254 | 27.4 | 48.3 | 0.00 | 0.00 | 0.00 | 62 | 1013.0 |
| 20260505175607 | 17 | 265 | 25.7 | 46.7 | 0.00 | 0.00 | 0.00 | 63 | 1013.0 |
| 20260505174559 | 17 | 249 | 24.1 | 46.7 | 0.00 | 0.00 | 0.00 | 63 | 1013.0 |
| 20260505173536 | 17 | 259 | 24.1 | 46.7 | 0.00 | 0.00 | 0.00 | 65 | 1013.0 |
| 20260505172519 | 17 | 254 | 25.7 | 40.2 | 0.00 | 0.00 | 0.00 | 66 | 1013.1 |
| 20260505171451 | 17 | 269 | 24.1 | 45.1 | 0.00 | 0.00 | 0.00 | 66 | 1013.1 |
| 20260505170428 | 16 | 263 | 27.4 | 45.1 | 0.00 | 0.00 | 0.00 | 66 | 1012.8 |
| 20260505165428 | 16 | 250 | 25.7 | 43.5 | 0.00 | 0.00 | 0.00 | 67 | 1012.8 |
| 20260505164443 | 16 | 265 | 22.5 | 41.8 | 0.00 | 0.00 | 0.00 | 68 | 1012.8 |
| 20260505163448 | 16 | 267 | 22.5 | 40.2 | 0.00 | 0.00 | 0.00 | 68 | 1012.9 |
| 20260505153009 | 15 | 286 | 20.9 | 38.6 | 0.00 | 0.00 | 0.00 | 73 | 1012.8 |
| 20260505151951 | 15 | 252 | 22.5 | 41.8 | 0.00 | 0.00 | 0.00 | 73 | 1012.6 |
| 20260505150942 | 15 | 270 | 24.1 | 41.8 | 0.00 | 0.00 | 0.00 | 73 | 1012.7 |
| 20260505124350 | 15 | 248 | 24.1 | 43.5 | 0.00 | 0.00 | 0.00 | 76 | 1011.7 |
| 20260505123358 | 15 | 269 | 20.9 | 41.8 | 0.00 | 0.00 | 0.00 | 76 | 1011.7 |
| 20260505122358 | 15 | 307 | 24.1 | 46.7 | 0.00 | 0.00 | 0.00 | 76 | 1011.6 |
| 20260505121354 | 15 | 273 | 24.1 | 56.3 | 0.00 | 0.00 | 0.00 | 75 | 1011.5 |
| 20260505120356 | 15 | 262 | 25.7 | 56.3 | 0.00 | 0.00 | 0.00 | 75 | 1011.4 |
| 20260505115400 | 15 | 279 | 24.1 | 45.1 | 0.00 | 0.00 | 0.00 | 75 | 1011.4 |
| 20260505114356 | 15 | 266 | 22.5 | 46.7 | 0.00 | 0.00 | 0.00 | 74 | 1011.4 |
| 20260505113348 | 15 | 307 | 27.4 | 46.7 | 0.00 | 0.00 | 0.00 | 74 | 1011.3 |
| 20260505112356 | 15 | 291 | 25.7 | 45.1 | 0.00 | 0.00 | 0.00 | 74 | 1011.1 |
| 20260505111345 | 15 | 269 | 20.9 | 43.5 | 0.00 | 0.00 | 0.00 | 74 | 1011.1 |
| 20260505101248 | 16 | 270 | 19.3 | 41.8 | 0.00 | 0.00 | 0.00 | 73 | 1010.7 |
| 20260505100235 | 16 | 258 | 25.7 | 49.9 | 0.00 | 0.00 | 0.00 | 72 | 1010.6 |
| 20260505095245 | 16 | 300 | 27.4 | 49.9 | 0.00 | 0.00 | 0.00 | 72 | 1010.5 |
| 20260505094234 | 16 | 277 | 24.1 | 45.1 | 0.00 | 0.00 | 0.00 | 72 | 1010.4 |
| 20260505092038 | 17 | 282 | 27.4 | 53.1 | 0.00 | 0.00 | 0.00 | 71 | 1010.3 |
| 20260505091047 | 17 | 281 | 22.5 | 41.8 | 0.00 | 0.00 | 0.00 | 70 | 1010.4 |
| 20260505090023 | 17 | 279 | 27.4 | 56.3 | 0.00 | 0.00 | 0.00 | 70 | 1010.3 |
| 20260505085043 | 17 | 265 | 29.0 | 56.3 | 0.00 | 0.00 | 0.00 | 69 | 1010.1 |
| 20260505084024 | 17 | 286 | 25.7 | 49.9 | 0.00 | 0.00 | 0.00 | 69 | 1010.0 |
| 20260505081920 | 18 | 273 | 27.4 | 43.5 | 0.00 | 0.00 | 0.00 | 70 | 1009.9 |
| 20260505080854 | 18 | 283 | 24.1 | 41.8 | 0.00 | 0.00 | 0.00 | 70 | 1009.8 |
| 20260505075851 | 18 | 271 | 22.5 | 45.1 | 0.00 | 0.00 | 0.00 | 70 | 1009.7 |
| 20260505074851 | 18 | 271 | 25.7 | 45.1 | 0.00 | 0.00 | 0.00 | 70 | 1009.6 |
| 20260505073854 | 18 | 277 | 25.7 | 45.1 | 0.00 | 0.00 | 0.00 | 70 | 1009.6 |
| 20260505072917 | 18 | 279 | 22.5 | 45.1 | 0.00 | 0.00 | 0.00 | 69 | 1009.6 |
| 20260505071848 | 18 | 269 | 22.5 | 40.2 | 0.00 | 0.00 | 0.00 | 69 | 1009.4 |
| 20260505070902 | 19 | 293 | 22.5 | 49.9 | 0.00 | 0.00 | 0.00 | 68 | 1009.3 |
| 20260505065833 | 20 | 310 | 24.1 | 49.9 | 0.00 | 0.00 | 0.00 | 67 | 1009.2 |
| 20260505064851 | 20 | 302 | 25.7 | 45.1 | 0.00 | 0.00 | 0.00 | 66 | 1009.1 |
| 20260505063912 | 20 | 294 | 22.5 | 51.5 | 0.00 | 0.00 | 0.00 | 66 | 1009.1 |
| 20260505062931 | 20 | 304 | 25.7 | 51.5 | 0.00 | 0.00 | 0.00 | 65 | 1009.0 |
| 20260505061900 | 20 | 263 | 20.9 | 43.5 | 0.00 | 0.00 | 0.00 | 65 | 1009.1 |
| 20260505060854 | 20 | 328 | 25.7 | 49.9 | 0.00 | 0.00 | 0.00 | 65 | 1009.1 |
| 20260505055853 | 20 | 323 | 25.7 | 49.9 | 0.00 | 0.00 | 0.00 | 65 | 1009.0 |
| 20260505053717 | 20 | 244 | 25.7 | 43.5 | 0.00 | 0.00 | 0.00 | 64 | 1008.9 |
| 20260505052718 | 20 | 289 | 25.7 | 49.9 | 0.00 | 0.00 | 0.00 | 64 | 1008.9 |
| 20260505050548 | 20 | 311 | 25.7 | 46.7 | 0.00 | 0.00 | 0.00 | 62 | 1008.8 |
| 20260505041456 | 21 | 301 | 24.1 | 40.2 | 0.00 | 0.00 | 0.00 | 59 | 1008.2 |
| 20260505040457 | 21 | 293 | 24.1 | 43.5 | 0.00 | 0.00 | 0.00 | 58 | 1007.9 |
| 20260505034306 | 21 | 298 | 25.7 | 43.5 | 0.00 | 0.00 | 0.00 | 57 | 1007.5 |
| 20260505033301 | 21 | 262 | 24.1 | 43.5 | 0.00 | 0.00 | 0.00 | 56 | 1007.5 |
| 20260505032315 | 21 | 284 | 24.1 | 43.5 | 0.00 | 0.00 | 0.00 | 55 | 1007.3 |
| 20260505031325 | 22 | 306 | 22.5 | 40.2 | 0.00 | 0.00 | 0.00 | 54 | 1007.2 |
| 20260505030322 | 22 | 265 | 20.9 | 41.8 | 0.00 | 0.00 | 0.00 | 54 | 1007.2 |
| 20260505024222 | 22 | 273 | 22.5 | 41.8 | 0.00 | 0.00 | 0.00 | 53 | 1006.9 |
| 20260505023201 | 22 | 292 | 22.5 | 37.0 | 0.00 | 0.00 | 0.00 | 53 | 1007.0 |
| 20260505022155 | 22 | 283 | 17.7 | 37.0 | 0.00 | 0.00 | 0.00 | 52 | 1006.9 |
| 20260505021155 | 23 | 274 | 20.9 | 33.8 | 0.00 | 0.00 | 0.00 | 52 | 1007.0 |
| 20260505015047 | 23 | 284 | 19.3 | 40.2 | 0.00 | 0.00 | 0.00 | 51 | 1006.8 |
| 20260505014103 | 23 | 282 | 19.3 | 40.2 | 0.00 | 0.00 | 0.00 | 50 | 1006.8 |
| 20260505013104 | 23 | 286 | 19.3 | 38.6 | 0.00 | 0.00 | 0.00 | 50 | 1006.8 |
| 20260505012118 | 23 | 284 | 20.9 | 37.0 | 0.00 | 0.00 | 0.00 | 50 | 1006.8 |
| 20260505011134 | 23 | 320 | 20.9 | 35.4 | 0.00 | 0.00 | 0.00 | 49 | 1006.7 |
| 20260505010129 | 23 | 291 | 22.5 | 37.0 | 0.00 | 0.00 | 0.00 | 49 | 1006.7 |
| 20260505003949 | 24 | 283 | 20.9 | 38.6 | 0.00 | 0.00 | 0.00 | 48 | 1006.7 |
| 20260505003001 | 24 | 273 | 19.3 | 32.2 | 0.00 | 0.00 | 0.00 | 48 | 1006.7 |
| 20260505001937 | 24 | 285 | 22.5 | 37.0 | 0.00 | 0.00 | 0.00 | 48 | 1006.7 |
| 20260504234726 | 24 | 293 | 27.4 | 48.3 | 0.00 | 0.00 | 0.00 | 47 | 1006.8 |
| 20260504232547 | 24 | 286 | 25.7 | 43.5 | 0.00 | 0.00 | 0.00 | 47 | 1006.8 |
| 20260504230337 | 25 | 280 | 25.7 | 48.3 | 0.00 | 0.00 | 0.00 | 45 | 1006.9 |
| 20260504224158 | 25 | 259 | 22.5 | 41.8 | 0.00 | 0.00 | 0.00 | 46 | 1007.1 |
| 20260504223129 | 25 | 305 | 24.1 | 41.8 | 0.00 | 0.00 | 0.00 | 45 | 1007.2 |
| 20260504221007 | 25 | 263 | 24.1 | 46.7 | 0.00 | 0.00 | 0.00 | 45 | 1007.3 |
| 20260504220016 | 24 | 217 | 25.7 | 43.5 | 0.00 | 0.00 | 0.00 | 46 | 1007.3 |
| 20260504213817 | 24 | 289 | 20.9 | 37.0 | 0.00 | 0.00 | 0.00 | 46 | 1007.5 |
| 20260504212752 | 24 | 284 | 20.9 | 37.0 | 0.00 | 0.00 | 0.00 | 45 | 1007.6 |
| 20260504211814 | 25 | 250 | 17.7 | 35.4 | 0.00 | 0.00 | 0.00 | 45 | 1007.7 |
| 20260504210819 | 24 | 227 | 19.3 | 35.4 | 0.00 | 0.00 | 0.00 | 45 | 1007.7 |
| 20260504205756 | 24 | 270 | 17.7 | 35.4 | 0.00 | 0.00 | 0.00 | 46 | 1007.9 |
| 20260504204728 | 23 | 267 | 17.7 | 29.0 | 0.00 | 0.00 | 0.00 | 47 | 1008.0 |
| 20260504203744 | 24 | 274 | 17.7 | 32.2 | 0.00 | 0.00 | 0.00 | 47 | 1008.1 |
| 20260504201600 | 23 | 261 | 16.1 | 35.4 | 0.00 | 0.00 | 0.00 | 45 | 1008.2 |
| 20260504200543 | 23 | 277 | 17.7 | 30.6 | 0.00 | 0.00 | 0.00 | 48 | 1008.2 |